Location: *
(43.7000°S, 168.7000°W)
Time: 10:46:35
(UTC+00:00)

Cosmos 1763 Rocket - Pass Details

Date: 07 July 2020
Orbit: 732 x 781 km, 74.0° (Epoch: 10 August)

Event Time Altitude Azimuth Distance (km) Brightness Sun altitude
Rises 17:28:45 0° 346° (NNW) 3,260 6.8 -13.8°
Reaches altitude 10° 17:31:08 10° 347° (NNW) 2,338 6.1 -13.4°
Maximum altitude 17:36:27 77° 72° (ENE) 812 3.8 -12.5°
Drops below altitude 10° 17:41:48 10° 157° (SSE) 2,349 6.1 -11.6°
Sets 17:44:11 0° 158° (SSE) 3,276 6.8 -11.2°
